Wind_Speed
95 91 88 77 59 40 26 17 19 23 34 41 48 63 54 71 75 76 83 67 53 54 62 69 76 70 60 62 66 61 62 58 47 48 45 46 46 39 40 36 41 37 44
79 74 49 35 18 14 13 12 19 25 26 31 37 49 56 47 61 68 67 67 54 46 46 48 62 69 68 64 53 52 62 58 52 47 51 51 45 43 39 37 36 35 36
64 31 27 22 15 14 16 19 31 31 26 16 16 18 27 32 46 47 47 48 47 53 47 45 48 59 56 63 72 64 59 62 58 55 51 43 45 44 40 38 37 38 41
29 18 14 11 7 13 18 27 29 20 19 16 17 15 16 22 17 20 25 26 29 39 44 42 43 45 39 40 38 58 69 64 55 54 52 49 49 47 43 40 38 41 47
18 15 14 13 16 15 23 28 21 16 13 11 8 7 8 10 10 10 12 15 20 23 28 37 61 56 37 37 40 44 59 62 58 56 58 57 55 53 46 46 38 34 53
21 17 18 19 17 17 18 23 21 14 12 10 11 12 11 11 10 11 13 13 16 19 25 28 33 38 41 42 38 36 37 38 51 41 42 42 50 51 51 48 44 33 47
20 18 21 23 19 21 22 25 23 19 17 16 16 17 17 16 16 14 17 17 18 19 20 26 27 28 34 44 44 42 40 42 40 49 39 44 43 43 56 54 41 42 40
18 19 17 19 22 25 25 24 21 18 16 16 17 18 19 20 21 22 22 23 24 24 24 27 28 31 33 32 34 37 46 49 46 45 50 44 41 50 48 50 46 48 45
21 18 21 22 23 24 24 23 23 23 21 21 22 23 25 28 28 28 29 30 32 34 35 36 36 36 37 37 36 37 37 39 49 53 55 53 53 56 47 46 57 56 49
28 30 33 32 30 27 26 25 24 22 22 23 24 25 28 31 35 37 39 39 38 40 41 43 45 44 45 44 43 42 41 39 39 48 58 65 61 63 55 50 49 55 55
33 34 36 32 32 29 29 27 25 24 22 21 22 23 25 30 30 33 37 39 41 42 46 50 50 49 47 46 46 49 46 46 46 49 57 64 65 66 71 60 51 55 54
36 37 35 33 32 31 31 29 27 25 24 23 22 22 25 28 32 32 32 36 36 37 42 46 54 56 54 52 50 52 51 52 52 54 58 69 62 59 69 71 56 57 53
38 37 37 36 35 33 32 32 30 27 27 27 27 27 30 33 35 37 40 43 45 39 36 40 48 55 62 57 55 55 56 56 51 53 57 63 56 57 61 63 67 62 59
41 38 38 38 37 37 38 37 35 34 33 33 32 34 34 37 39 40 43 46 45 40 32 32 34 41 46 47 49 51 49 46 49 52 55 51 52 49 60 64 62 63 64
44 43 41 40 41 41 41 41 41 40 39 39 39 39 39 40 39 41 42 46 43 39 34 28 24 27 33 37 38 39 40 41 50 49 51 49 44 37 48 58 61 59 55
50 47 46 44 43 42 43 43 44 44 43 43 42 42 42 40 41 41 43 46 44 37 34 25 25 24 25 25 26 30 32 41 37 39 39 49 57 46 47 48 51 56 55
53 53 51 49 48 47 46 44 43 42 43 44 44 43 43 43 45 45 42 45 44 36 32 24 22 21 23 22 22 25 37 45 44 45 36 42 40 43 46 44 50 49 48
53 54 54 54 54 53 51 48 47 45 43 40 41 41 42 44 45 43 42 44 42 36 32 25 21 21 28 28 28 28 31 43 47 45 41 44 42 41 39 39 37 39 47
54 55 55 56 56 56 55 51 49 50 49 48 47 46 45 44 43 45 42 42 44 36 30 24 22 23 26 29 31 28 30 33 40 42 40 39 40 39 38 38 37 37 36
54 54 55 55 55 56 57 56 53 53 52 48 45 44 44 44 44 44 42 41 40 34 27 23 22 25 29 27 27 29 31 33 33 39 42 44 43 43 43 41 40 42 40
61 61 60 60 58 55 53 51 51 53 53 50 45 43 40 39 39 40 40 40 37 31 26 23 21 27 31 31 29 30 30 30 31 37 39 41 42 43 41 43 44 44 42
65 65 67 67 64 63 62 59 56 54 52 50 50 46 44 44 41 38 38 35 35 29 25 23 20 27 29 31 30 36 31 29 29 33 38 42 42 42 43 45 46 44 42
70 69 68 70 71 67 64 64 62 60 57 55 53 51 51 49 48 43 41 35 31 27 25 22 20 26 31 30 30 33 32 30 27 27 24 27 35 42 49 54 54 51 50
69 70 71 73 75 75 73 70 66 62 58 57 58 56 54 54 53 49 44 39 34 28 26 22 19 24 30 37 34 34 32 26 26 27 27 27 25 27 29 36 36 35 42
57 59 61 63 66 69 70 71 69 66 65 63 60 59 59 58 55 53 53 44 38 31 28 24 19 23 29 35 39 39 34 29 24 29 28 27 26 27 30 33 37 39 38
50 52 54 55 57 57 56 54 55 60 62 61 61 61 60 60 62 64 60 55 43 34 31 25 19 21 26 35 36 36 34 31 32 32 33 31 34 36 36 36 38 36 34
Wind_Direction
313 309 304 298 295 297 295 295 312 292 280 272 262 250 258 251 255 257 250 251 251 247 250 248 242 239 239 245 251 250 245 239 233 231 243 241 242 239 243 247 257 233 234
307 304 297 295 293 315 318 308 317 319 312 275 272 254 255 257 255 261 259 255 242 236 239 253 254 247 242 235 241 240 233 225 224 227 238 241 239 237 237 241 245 232 231
307 292 302 300 285 290 314 311 321 312 300 318 313 289 255 245 250 255 262 263 255 241 228 227 248 257 255 249 242 239 239 231 226 233 235 228 231 231 234 234 241 235 227
287 293 299 295 292 289 303 319 311 317 312 310 302 302 295 270 250 240 229 226 240 249 233 226 225 224 224 232 232 239 238 230 219 220 220 221 229 230 232 231 235 235 227
276 280 275 298 295 304 313 312 344 348 354 352 355 347 339 329 305 281 255 235 228 232 230 236 236 248 233 235 235 232 234 227 216 214 218 220 227 233 229 232 226 232 231
280 265 261 277 289 295 310 318 321 324 317 325 326 328 319 306 308 286 270 247 242 238 226 221 229 240 233 229 227 236 237 237 236 236 210 222 233 227 224 234 227 227 233
284 269 277 272 275 290 299 311 310 315 312 310 310 308 306 299 295 280 266 260 251 243 234 225 212 217 226 234 242 238 234 237 239 240 246 230 223 233 225 233 241 239 229
295 293 292 287 279 284 293 306 306 309 312 312 309 308 307 306 301 293 281 269 260 249 241 237 235 237 238 234 226 229 230 229 229 239 238 251 231 234 230 221 234 224 220
281 286 288 309 298 303 300 300 296 301 305 308 310 311 308 304 298 291 283 276 269 262 256 252 248 245 242 240 239 239 236 233 230 228 223 225 237 230 224 228 219 230 224
270 288 296 296 293 295 293 293 292 294 300 303 305 306 308 307 305 300 290 282 272 266 263 258 254 251 248 248 246 243 242 243 240 238 230 221 227 239 228 227 231 232 228
285 297 291 297 288 285 292 286 284 288 287 291 297 305 308 307 305 299 295 292 286 278 268 265 260 255 250 250 253 251 251 246 248 246 237 229 226 226 230 233 234 237 227
290 290 292 292 287 283 280 275 275 275 279 285 294 302 306 310 316 316 317 312 296 285 277 267 257 253 253 255 252 252 248 250 250 241 236 229 223 224 226 231 227 224 223
283 283 285 286 286 282 275 271 270 271 273 280 285 290 295 299 305 312 316 317 316 300 283 272 258 251 251 254 248 250 248 253 245 232 228 230 222 222 223 224 226 229 228
280 280 279 280 281 280 279 275 272 270 272 275 281 287 292 297 303 309 311 315 315 309 301 283 260 245 246 249 247 248 247 241 235 226 228 232 226 224 217 216 224 222 223
276 277 276 276 275 275 275 275 275 275 274 275 279 285 288 292 299 303 311 320 314 312 312 295 266 253 251 247 243 238 235 235 215 220 225 212 215 218 220 215 217 220 217
272 272 272 273 274 275 275 276 277 276 278 280 281 283 287 290 296 300 309 316 317 314 312 291 267 253 248 247 239 228 224 209 214 216 226 226 224 231 229 219 206 212 217
271 271 269 269 270 272 273 274 275 280 281 281 282 284 286 290 294 299 304 313 316 312 311 291 256 241 237 223 208 206 211 211 218 215 220 223 224 224 228 232 228 209 209
268 267 268 269 269 270 271 272 273 273 274 277 281 282 285 289 291 294 301 309 316 308 308 294 245 235 229 222 215 233 228 222 222 219 229 218 211 213 215 228 231 235 228
271 270 270 269 269 269 268 266 268 273 274 274 274 277 280 283 286 289 295 302 312 302 302 296 240 232 229 225 225 221 220 216 217 227 217 217 217 222 224 227 232 236 240
270 269 269 270 270 270 269 267 265 270 273 273 273 275 277 279 282 284 290 297 303 296 297 299 241 228 227 226 221 221 216 218 222 215 214 219 223 227 230 232 234 238 237
270 270 270 267 266 265 265 267 268 267 268 270 269 269 272 273 273 277 281 287 295 289 289 296 250 224 230 227 226 222 222 223 226 225 230 231 235 235 233 233 229 230 228
264 265 270 272 271 270 268 266 265 264 264 265 263 261 263 271 273 274 276 278 285 282 279 290 265 227 227 230 229 222 222 225 231 228 234 233 234 235 235 235 237 235 230
264 265 265 265 269 270 269 269 269 269 267 264 261 257 258 264 270 274 271 270 272 276 271 280 269 234 222 227 224 215 217 221 217 217 211 217 228 234 233 228 227 229 220
266 266 265 264 264 265 266 266 265 264 263 262 263 262 260 261 264 267 270 267 264 270 266 266 266 242 224 221 224 216 212 218 224 219 215 219 225 218 199 198 198 197 197
271 271 269 268 267 265 263 262 261 260 257 256 255 256 258 258 258 260 265 265 256 262 259 253 259 242 226 220 220 219 218 216 220 205 200 205 194 182 177 179 183 186 191
278 276 274 271 268 267 267 266 262 257 253 252 251 250 251 254 257 257 258 260 253 250 249 244 249 235 228 213 208 209 207 204 203 190 185 189 190 188 189 191 194 198 202
Height
5567 5553 5541 5531 5522 5515 5511 5510 5508 5507 5503 5500 5501 5504 5505 5508 5512 5518 5531 5540 5548 5554 5558 5562 5570 5578 5589 5597 5601 5608 5616 5620 5626 5631 5636 5642 5650 5656 5660 5665 5672 5670 5677
5546 5532 5523 5518 5516 5513 5509 5506 5504 5500 5494 5489 5486 5487 5491 5494 5499 5504 5510 5520 5533 5538 5544 5547 5550 5559 5570 5579 5584 5591 5598 5603 5610 5618 5623 5626 5635 5643 5646 5652 5658 5661 5666
5526 5518 5515 5511 5511 5509 5506 5503 5499 5492 5489 5483 5481 5480 5482 5484 5489 5492 5498 5506 5515 5522 5528 5532 5537 5545 5552 5559 5566 5577 5583 5587 5594 5603 5610 5610 5620 5627 5634 5637 5643 5650 5656
5515 5514 5511 5508 5508 5506 5504 5500 5495 5489 5484 5481 5480 5480 5479 5481 5481 5484 5489 5493 5497 5506 5511 5514 5524 5533 5538 5544 5550 5555 5566 5571 5577 5585 5594 5599 5605 5612 5620 5624 5630 5637 5644
5513 5511 5509 5508 5506 5504 5501 5498 5492 5490 5487 5485 5483 5482 5480 5480 5481 5481 5482 5485 5490 5493 5496 5501 5513 5523 5527 5529 5534 5538 5544 5554 5561 5568 5577 5585 5590 5599 5607 5612 5616 5625 5631
5509 5508 5507 5505 5503 5501 5498 5495 5492 5489 5487 5485 5483 5482 5481 5480 5479 5480 5483 5482 5485 5489 5492 5494 5498 5507 5514 5516 5519 5523 5529 5535 5546 5552 5560 5570 5579 5588 5595 5601 5606 5610 5618
5506 5504 5503 5501 5499 5498 5495 5492 5490 5486 5484 5482 5480 5480 5479 5478 5479 5480 5481 5481 5482 5483 5485 5488 5491 5496 5501 5504 5507 5511 5517 5523 5531 5539 5548 5555 5564 5573 5583 5590 5598 5603 5607
5503 5500 5498 5497 5496 5493 5491 5488 5486 5483 5481 5478 5477 5476 5475 5474 5474 5474 5475 5476 5478 5478 5481 5483 5485 5488 5491 5494 5497 5500 5506 5511 5519 5527 5536 5544 5553 5560 5566 5577 5585 5588 5594
5499 5496 5494 5493 5490 5487 5485 5483 5481 5478 5475 5473 5472 5471 5470 5469 5468 5468 5468 5468 5469 5470 5471 5473 5475 5478 5480 5483 5486 5490 5495 5501 5505 5511 5521 5528 5538 5545 5550 5556 5563 5575 5584
5492 5490 5486 5485 5483 5481 5479 5477 5475 5472 5469 5468 5466 5465 5463 5462 5460 5458 5457 5456 5456 5457 5458 5459 5460 5462 5465 5468 5472 5477 5482 5489 5494 5497 5503 5511 5520 5529 5536 5545 5552 5561 5569
5483 5480 5478 5475 5474 5472 5470 5469 5468 5465 5463 5461 5459 5457 5455 5454 5451 5448 5445 5442 5441 5441 5441 5441 5443 5446 5450 5453 5457 5462 5470 5473 5478 5481 5485 5493 5503 5510 5526 5534 5541 5547 5556
5472 5470 5467 5466 5464 5463 5462 5460 5458 5457 5456 5453 5451 5448 5446 5444 5442 5438 5434 5430 5427 5424 5422 5421 5423 5426 5430 5435 5439 5444 5448 5453 5458 5464 5471 5479 5489 5498 5509 5524 5529 5535 5543
5461 5459 5457 5455 5453 5452 5452 5451 5449 5448 5447 5445 5443 5440 5437 5435 5432 5429 5424 5419 5413 5407 5404 5402 5402 5405 5411 5417 5422 5425 5429 5435 5441 5449 5460 5468 5480 5485 5492 5504 5514 5521 5527
5448 5446 5444 5443 5441 5441 5440 5440 5439 5438 5437 5435 5433 5431 5428 5425 5422 5418 5414 5408 5401 5394 5390 5385 5385 5388 5393 5398 5403 5409 5414 5420 5428 5438 5447 5454 5465 5470 5478 5488 5498 5507 5513
5435 5433 5431 5430 5429 5429 5428 5427 5427 5425 5425 5424 5423 5421 5419 5417 5413 5409 5405 5399 5391 5384 5379 5374 5374 5377 5381 5385 5390 5395 5402 5408 5417 5425 5434 5444 5452 5457 5465 5473 5484 5493 5500
5418 5418 5417 5416 5415 5415 5415 5414 5413 5413 5412 5411 5411 5410 5409 5406 5403 5400 5395 5389 5382 5376 5371 5367 5367 5369 5372 5375 5379 5385 5391 5401 5409 5416 5424 5432 5440 5448 5457 5464 5470 5478 5486
5402 5401 5400 5400 5400 5400 5400 5401 5402 5400 5399 5399 5398 5398 5396 5395 5393 5390 5386 5381 5374 5369 5364 5361 5361 5364 5367 5370 5374 5380 5387 5394 5402 5409 5416 5424 5431 5438 5447 5454 5460 5466 5475
5383 5382 5382 5383 5383 5383 5384 5385 5386 5388 5389 5388 5386 5386 5385 5384 5382 5380 5377 5373 5368 5362 5358 5355 5355 5358 5362 5365 5370 5374 5379 5385 5393 5399 5407 5415 5422 5429 5436 5443 5449 5456 5465
5364 5364 5363 5364 5364 5364 5366 5368 5369 5370 5372 5374 5375 5374 5373 5373 5371 5369 5367 5365 5362 5357 5352 5349 5348 5352 5356 5359 5363 5368 5373 5378 5384 5390 5398 5406 5413 5420 5426 5433 5440 5448 5454
5346 5345 5345 5345 5346 5346 5347 5349 5351 5353 5355 5357 5359 5359 5360 5360 5359 5358 5357 5356 5353 5349 5346 5343 5342 5345 5350 5354 5358 5362 5367 5372 5378 5383 5390 5396 5403 5409 5417 5424 5431 5439 5446
5326 5326 5326 5326 5327 5328 5329 5331 5333 5334 5337 5340 5343 5344 5345 5347 5347 5346 5346 5346 5345 5342 5339 5336 5336 5338 5343 5348 5352 5356 5360 5365 5370 5376 5382 5387 5392 5399 5406 5413 5419 5426 5435
5303 5304 5304 5304 5305 5308 5309 5311 5314 5316 5319 5322 5326 5328 5330 5332 5333 5334 5334 5335 5335 5333 5331 5330 5329 5331 5336 5341 5345 5349 5354 5358 5362 5366 5371 5376 5382 5388 5393 5399 5406 5414 5424
5279 5280 5281 5281 5281 5284 5286 5289 5292 5295 5298 5302 5306 5310 5313 5317 5319 5320 5322 5324 5324 5324 5323 5323 5322 5324 5328 5334 5338 5343 5348 5353 5356 5361 5365 5370 5375 5379 5382 5390 5399 5407 5415
5255 5255 5255 5256 5257 5258 5261 5264 5268 5272 5276 5280 5285 5290 5295 5300 5304 5306 5309 5311 5313 5314 5315 5316 5315 5317 5320 5326 5332 5337 5342 5347 5351 5356 5360 5365 5369 5371 5371 5379 5388 5397 5407
5230 5229 5229 5229 5229 5230 5232 5236 5240 5245 5250 5256 5261 5267 5274 5280 5286 5291 5294 5298 5301 5304 5306 5308 5308 5309 5312 5317 5324 5330 5336 5341 5345 5350 5355 5360 5365 5370 5375 5382 5388 5396 5403
5210 5207 5206 5206 5206 5207 5208 5210 5214 5218 5223 5230 5236 5243 5250 5258 5266 5273 5279 5284 5288 5293 5296 5299 5301 5302 5305 5310 5316 5322 5329 5335 5342 5346 5352 5357 5363 5369 5374 5380 5386 5392 5399